Weather History for Fort Huachuca, AZ

Change the Weather History Date:

Thursday, November 8, 2012

  Actual Average (KFHU) Record (KFHU)
Temperature  
Mean Temperature 64 °F -  
Max Temperature 73 °F 67 °F 82 °F (2005)
Min Temperature 55 °F 45 °F 30 °F (2000)
Degree Days  
Heating Degree Days 1    
Growing Degree Days 14 (Base 50)    
Moisture  
Dew Point 31 °F    
Average Humidity 31    
Maximum Humidity 49    
Minimum Humidity 16    
Precipitation  
Precipitation 0.00 in - - ()
Sea Level Pressure  
Sea Level Pressure 29.86 in    
Wind  
Wind Speed 11 mph (SW)    
Max Wind Speed 25 mph    
Max Gust Speed 33 mph    
Visibility 10 miles    
Events      
Averages and records for this station are not official NWS values.
T = Trace of Precipitation, MM = Missing Value Source: NWS Daily Summary

Daily Weather History Graph

Daily Weather History Graph

Search for Another Location

Airport:

Trip Planner

Search our weather history database for the weather conditions in past years. The results will help you decide how hot, cold, wet, or windy it might be!

Date:

Astronomy

Nov. 08, 2012 Rise Set
Actual Time 6:44 AM MST 5:26 PM MST
Civil Twilight 6:18 AM MST 5:51 PM MST
Nautical Twilight 5:49 AM MST 6:21 PM MST
Astronomical Twilight 5:20 AM MST 6:49 PM MST
Moon 1:03 AM MST (11/8) 1:50 PM MST (11/8)
Length of Visible Light 11h 33m
Length of Day
10h 42m
Waning Crescent, 32% of the Moon is Illuminated
Nov 8
Waning Crescent
Nov 13
New
Nov 20
First Quarter
Nov 28
Full
Dec 6
Last Quarter

Hourly Weather History & Observations

Time (MST) Temp. Dew Point Humidity Pressure Visibility Wind Dir Wind Speed Gust Speed Precip Events Conditions
12:56 AM 63.0 °F 27.0 °F 26% 29.85 in 10.0 mi SSW 8.1 mph - N/A   Clear
2:56 AM - - N/A% - - North - - N/A   Unknown
3:56 AM 57.0 °F 28.9 °F 34% 29.83 in 10.0 mi West 8.1 mph - N/A   Clear
4:56 AM - - N/A% - - North - - N/A   Unknown
5:56 AM 55.9 °F 28.0 °F 34% 29.87 in 10.0 mi WSW 6.9 mph - N/A   Clear
6:56 AM 57.0 °F 28.0 °F 33% 29.87 in 10.0 mi WSW 3.5 mph - N/A   Clear
7:56 AM 57.0 °F 30.0 °F 36% 29.90 in 10.0 mi WNW 8.1 mph - N/A   Clear
8:56 AM 66.9 °F 23.0 °F 19% 29.89 in 10.0 mi SW 11.5 mph - N/A   Clear
9:56 AM 68.0 °F 25.0 °F 20% 29.88 in 10.0 mi WSW 15.0 mph - N/A   Clear
10:56 AM 69.1 °F 27.0 °F 21% 29.88 in 10.0 mi SW 12.7 mph - N/A   Clear
11:56 AM 73.0 °F 26.1 °F 17% 29.84 in 10.0 mi WSW 17.3 mph 26.5 mph N/A   Clear
12:56 PM 73.9 °F 24.1 °F 16% 29.81 in 10.0 mi WSW 13.8 mph - N/A   Clear
2:56 PM 73.0 °F 28.0 °F 19% 29.81 in 10.0 mi SW 25.3 mph 33.4 mph N/A   Overcast
3:56 PM 68.0 °F 34.0 °F 28% 29.84 in 10.0 mi SW 20.7 mph 27.6 mph N/A   Overcast
4:56 PM 66.0 °F 35.1 °F 32% 29.84 in 10.0 mi South 12.7 mph 20.7 mph N/A   Overcast
5:56 PM 64.9 °F 36.0 °F 34% 29.86 in 10.0 mi North - - N/A   Overcast
7:56 PM 61.0 °F 39.0 °F 44% 29.90 in 10.0 mi West 9.2 mph - N/A   Overcast
8:56 PM 60.1 °F 41.0 °F 49% 29.89 in 10.0 mi SSW 16.1 mph - 0.00 in   Overcast
9:56 PM 62.1 °F 39.0 °F 43% 29.83 in 10.0 mi SSW 20.7 mph 27.6 mph 0.00 in   Partly Cloudy
10:56 PM 61.0 °F 37.9 °F 42% 29.85 in 10.0 mi SSW 15.0 mph - N/A   Clear
11:56 PM 60.1 °F 39.9 °F 47% 29.83 in 10.0 mi SSW 20.7 mph 32.2 mph N/A   Clear